Regional Weather Roundup
Issued by NWS

Home | Current Version | Previous Version | Text Only | Print | Product List | Glossary On
Versions: 1 2 3 4 5 6 7 8 9 10 11 12 13 14 15 16 17 18 19 20 21 22 23 24 25 26 27 28 29 30 31 32 33 34 35 36 37 38 39 40 41 42 43 44 45 46 47 48 49 50
162
ASUS42 KFFC 112103
RWRGA
WEATHER ROUNDUP FOR GEORGIA
NATIONAL WEATHER SERVICE PEACHTREE CITY GA
400 PM EST THU FEB 11 2016

NOTE: "FAIR" INDICATES FEW OR NO CLOUDS BELOW 12,000 FEET WITH NO
SIGNIFICANT WEATHER AND/OR OBSTRUCTIONS TO VISIBILITY.

* = USE WITH CAUTION. THE STATIONS MARKED WITH AN ASTERISK MAY NOT
REPORT WEATHER SUCH AS PRECIPITATION, FOG, OR THUNDER AND ARE NOT
QUALITY CONTROLLED BY NWS.

THE REMARK "TC" DENOTES TEMPERATURE READING IN DEGREES CELSIUS.

GAZ001>058-112200-
NORTH GEORGIA

CITY           SKY/WX    TMP DP  RH WIND       PRES   REMARKS
ATLANTA        SUNNY     55  22  27 CALM      30.12S
ATHENS         SUNNY     55  22  27 VRB3      30.11S
CHAMBLEE       SUNNY     53  24  32 SW5       30.11S
PEACHTREE CITY SUNNY     55  27  34 VRB3      30.13S
ROME           SUNNY     51  22  31 CALM      30.13S
WEST ATLANTA   SUNNY     54  22  28 VRB3      30.12S
GAINESVILLE    SUNNY     50  22  33 SW3       30.11S
CARTERSVILLE   SUNNY     51  23  33 VRB7      30.14S


CITY           SKY/WX    TMP DP  RH WIND       PRES   REMARKS
LAWRENCEVILLE* SUNNY     54  21  28 SW10      30.11S
KENNESAW*      SUNNY     52  21  30 NW9       30.12F
BLAIRSVILLE*     N/A     45 -28   4 N7        30.11R
$$

GAZ059>098-102>109-112200-
CENTRAL GEORGIA

CITY           SKY/WX    TMP DP  RH WIND       PRES   REMARKS
AUGUSTA-BUSH   CLOUDY    56  23  27 E5        30.12F HAZE
AUGUSTA-DANIEL SUNNY     56  23  27 SW5       30.13S
COLUMBUS       SUNNY     65  39  38 NW13      30.10R
MACON          SUNNY     62  33  33 N5        30.12R
ROBINS AFB     SUNNY     62  31  32 NW7       30.11S


CITY           SKY/WX    TMP DP  RH WIND       PRES   REMARKS
LAGRANGE*      SUNNY     63  41  45 CALM      30.11S
SYLVANIA*      SUNNY     60  33  36 SW5       30.13F
MILLEDGEVILLE* SUNNY     55  25  30 CALM      30.14R
$$

GAZ099>101-110>166-112200-
SOUTH GEORGIA

CITY           SKY/WX    TMP DP  RH WIND       PRES   REMARKS
SAVANNAH       SUNNY     59  31  34 E10       30.14S
VALDOSTA       SUNNY     68  44  42 VRB7G20   30.13F
ALMA           SUNNY     66  39  37 SW13G20   30.11F
ST SIMONS      SUNNY     56  46  69 SE13      30.14F
FT STEWART     SUNNY     65  33  31 SW9G18    30.10F
ALBANY         SUNNY     69  40  34 SW15G23   30.11F
HUNTER AFB     SUNNY     56  33  42 SE9       30.12S
MOODY AFB      SUNNY     69  40  34 SW16G23   30.11F
BRUNSWICK      SUNNY     64  43  45 SE8       30.13F


CITY           SKY/WX    TMP DP  RH WIND       PRES   REMARKS
BAINBRIDGE*    SUNNY     72  45  37 SW14G20   30.12S
MOULTRIE*      SUNNY     70  41  35 SW12      30.13S
VIDALIA*       SUNNY     64  36  34 SW8       30.10S
WAYCROSS*      SUNNY     71  42  35 W13       30.11F
DOUGLAS*       SUNNY     68  39  34 SW15G21   30.12F
$$




USA.gov is the U.S. government's official web portal to all federal, state and local government web resources and services.